User: anonymous   Login
Location: Unspecified
(0.0000°N, 0.0000°E)
Time: 10:29:41
(UTC+00:00)
Language:

Cosmos 1680 - Orbit

View from above orbital plane
View from above orbital plane
View from above satellite
View from above satellite

Ground track
Ground track

The orbit data is extracted from the following two-line orbital elements,

1 16011U 85079A   18021.57636675 +.00000028 +00000-0 +19442-4 0  9999
2 16011 074.0528 168.9669 0014776 018.1522 342.0154 14.33176456692147
Epoch (UTC): 21 January 2018 13:49:58
Eccentricity: 0.0014776
inclination: 74.0528°
perigee height: 770 km
apogee height: 792 km
right ascension of ascending node: 168.9669°
argument of perigee: 18.1522°
revolutions per day: 14.33176456
mean anomaly at epoch: 342.0154°
orbit number at epoch: 69214

The dashed part of the orbit path shows where the satellite is in the earth's shadow,  

DLR